| time (UTC) | temp F | wind direction | speed knots | gust knots | rain 1hr in | rain 24hr in | rain mn in | humidity % | barometer mb |
| 20260504214003 | 75 | 193 | 4.3 | 13.0 | 0.00 | 0.00 | 0.00 | 36 | 1008.3 |
| 20260504213503 | 75 | 244 | 7.8 | 14.8 | 0.00 | 0.00 | 0.00 | 35 | 1008.3 |
| 20260504213009 | 75 | 184 | 5.2 | 14.8 | 0.00 | 0.00 | 0.00 | 35 | 1008.2 |
| 20260504212503 | 75 | 210 | 4.3 | 12.2 | 0.00 | 0.00 | 0.00 | 36 | 1008.2 |
| 20260504212003 | 75 | 226 | 5.2 | 13.9 | 0.00 | 0.00 | 0.00 | 35 | 1008.3 |
| 20260504211509 | 75 | 223 | 6.1 | 13.9 | 0.00 | 0.00 | 0.00 | 35 | 1008.1 |
| 20260504211004 | 75 | 243 | 6.1 | 13.9 | 0.00 | 0.00 | 0.00 | 35 | 1008.1 |
| 20260504210504 | 75 | 189 | 6.1 | 13.9 | 0.00 | 0.00 | 0.00 | 35 | 1008.1 |
| 20260504210016 | 75 | 218 | 7.0 | 13.0 | 0.00 | 0.00 | 0.00 | 35 | 1008.2 |
| 20260504205504 | 75 | 207 | 6.1 | 10.4 | 0.00 | 0.00 | 0.00 | 35 | 1008.1 |
| 20260504204004 | 75 | 173 | 3.5 | 11.3 | 0.00 | 0.00 | 0.00 | 34 | 1008.2 |
| 20260504203503 | 74 | 243 | 5.2 | 11.3 | 0.00 | 0.00 | 0.00 | 35 | 1008.4 |
| 20260504203006 | 74 | 223 | 5.2 | 10.4 | 0.00 | 0.00 | 0.00 | 35 | 1008.4 |
| 20260504202506 | 74 | 191 | 6.1 | 11.3 | 0.00 | 0.00 | 0.00 | 35 | 1008.5 |
| 20260504202004 | 74 | 200 | 5.2 | 11.3 | 0.00 | 0.00 | 0.00 | 35 | 1008.6 |
| 20260504201509 | 74 | 200 | 4.3 | 13.0 | 0.00 | 0.00 | 0.00 | 34 | 1008.7 |
| 20260504201003 | 74 | 172 | 4.3 | 13.9 | 0.00 | 0.00 | 0.00 | 35 | 1008.7 |
| 20260504200503 | 74 | 218 | 3.5 | 13.9 | 0.00 | 0.00 | 0.00 | 34 | 1008.8 |
| 20260504200016 | 74 | 248 | 6.1 | 12.2 | 0.00 | 0.00 | 0.00 | 35 | 1008.8 |
| 20260504195504 | 74 | 172 | 2.6 | 10.4 | 0.00 | 0.00 | 0.00 | 35 | 1008.9 |
| 20260504195007 | 74 | 221 | 3.5 | 11.3 | 0.00 | 0.00 | 0.00 | 35 | 1009.0 |
| 20260504194514 | 73 | 259 | 3.5 | 13.0 | 0.00 | 0.00 | 0.00 | 35 | 1009.1 |
| 20260504193509 | 72 | 238 | 7.8 | 13.0 | 0.00 | 0.00 | 0.00 | 35 | 1009.2 |
| 20260504193011 | 72 | 239 | 5.2 | 14.8 | 0.00 | 0.00 | 0.00 | 36 | 1009.3 |
| 20260504192505 | 73 | 217 | 8.7 | 14.8 | 0.00 | 0.00 | 0.00 | 35 | 1009.4 |
| 20260504192005 | 73 | 231 | 4.3 | 12.2 | 0.00 | 0.00 | 0.00 | 36 | 1009.5 |
| 20260504191512 | 73 | 238 | 7.0 | 10.4 | 0.00 | 0.00 | 0.00 | 35 | 1009.5 |
| 20260504191003 | 73 | 90 | 2.6 | 9.6 | 0.00 | 0.00 | 0.00 | 35 | 1009.6 |
| 20260504190506 | 73 | 207 | 6.1 | 12.2 | 0.00 | 0.00 | 0.00 | 35 | 1009.6 |
| 20260504190015 | 72 | 213 | 3.5 | 12.2 | 0.00 | 0.00 | 0.00 | 37 | 1009.6 |
| 20260504185503 | 72 | 215 | 4.3 | 13.0 | 0.00 | 0.00 | 0.00 | 37 | 1009.8 |
| 20260504185003 | 72 | 199 | 4.3 | 15.6 | 0.00 | 0.00 | 0.00 | 36 | 1009.8 |
| 20260504184525 | 72 | 169 | 5.2 | 15.6 | 0.00 | 0.00 | 0.00 | 35 | 1009.9 |
| 20260504184006 | 73 | 227 | 4.3 | 11.3 | 0.00 | 0.00 | 0.00 | 35 | 1010.0 |
| 20260504183506 | 72 | 274 | 5.2 | 10.4 | 0.00 | 0.00 | 0.00 | 35 | 1010.0 |
| 20260504183023 | 72 | 155 | 5.2 | 11.3 | 0.00 | 0.00 | 0.00 | 35 | 1010.1 |
| 20260504181512 | 71 | 218 | 6.1 | 11.3 | 0.00 | 0.00 | 0.00 | 37 | 1010.3 |
| 20260504181006 | 71 | 181 | 4.3 | 10.4 | 0.00 | 0.00 | 0.00 | 36 | 1010.3 |
| 20260504180507 | 71 | 217 | 5.2 | 11.3 | 0.00 | 0.00 | 0.00 | 36 | 1010.4 |
| 20260504180011 | 70 | 297 | 5.2 | 11.3 | 0.00 | 0.00 | 0.00 | 36 | 1010.6 |
| 20260504175502 | 70 | 251 | 4.3 | 11.3 | 0.00 | 0.00 | 0.00 | 36 | 1010.6 |
| 20260504175006 | 70 | 211 | 4.3 | 11.3 | 0.00 | 0.00 | 0.00 | 37 | 1010.7 |
| 20260504174516 | 70 | 141 | 6.1 | 11.3 | 0.00 | 0.00 | 0.00 | 36 | 1010.7 |
| 20260504174005 | 70 | 251 | 3.5 | 10.4 | 0.00 | 0.00 | 0.00 | 36 | 1010.8 |
| 20260504173510 | 71 | 169 | 4.3 | 10.4 | 0.00 | 0.00 | 0.00 | 35 | 1010.8 |
| 20260504173016 | 70 | 236 | 4.3 | 10.4 | 0.00 | 0.00 | 0.00 | 36 | 1010.9 |
| 20260504172507 | 70 | 186 | 5.2 | 10.4 | 0.00 | 0.00 | 0.00 | 35 | 1010.9 |
| 20260504172006 | 70 | 236 | 4.3 | 10.4 | 0.00 | 0.00 | 0.00 | 36 | 1011.0 |
| 20260504171513 | 70 | 231 | 2.6 | 10.4 | 0.00 | 0.00 | 0.00 | 36 | 1011.0 |
| 20260504151002 | 65 | 262 | 2.6 | 8.7 | 0.00 | 0.00 | 0.00 | 37 | 1013.0 |
| 20260504150510 | 64 | 242 | 3.5 | 9.6 | 0.00 | 0.00 | 0.00 | 38 | 1013.1 |
| 20260504141004 | 59 | 207 | 0.9 | 3.5 | 0.00 | 0.00 | 0.00 | 42 | 1013.6 |
| 20260504140502 | 59 | 264 | 0.9 | 4.3 | 0.00 | 0.00 | 0.00 | 44 | 1013.6 |
| 20260504130502 | 54 | 318 | 0.9 | 2.6 | 0.00 | 0.00 | 0.00 | 47 | 1014.1 |
| 20260504110503 | 48 | 214 | 0.9 | 3.5 | 0.00 | 0.00 | 0.00 | 58 | 1014.1 |
| 20260504100504 | 45 | 278 | 0.0 | 1.7 | 0.00 | 0.00 | 0.00 | 61 | 1014.4 |
| 20260504082007 | 46 | 166 | 0.9 | 1.7 | 0.00 | 0.00 | 0.00 | 59 | 1014.6 |
| 20260504081528 | 46 | 197 | 0.0 | 1.7 | 0.00 | 0.00 | 0.00 | 60 | 1014.6 |
| 20260504081003 | 46 | 237 | 0.0 | 0.9 | 0.00 | 0.00 | 0.00 | 59 | 1014.6 |
| 20260504080507 | 47 | 238 | 0.0 | 0.9 | 0.00 | 0.00 | 0.00 | 60 | 1014.6 |
| 20260504050507 | 50 | 243 | 0.0 | 4.3 | 0.00 | 0.00 | 0.00 | 52 | 1014.8 |
| 20260504050020 | 50 | 260 | 0.9 | 4.3 | 0.00 | 0.00 | 0.00 | 51 | 1014.8 |
| 20260504045506 | 50 | 285 | 1.7 | 4.3 | 0.00 | 0.00 | 0.00 | 51 | 1014.7 |
| 20260504045010 | 50 | 274 | 1.7 | 4.3 | 0.00 | 0.00 | 0.00 | 50 | 1014.8 |
| 20260504044525 | 50 | 272 | 3.5 | 4.3 | 0.00 | 0.00 | 0.00 | 50 | 1014.9 |
| 20260504044009 | 51 | 271 | 2.6 | 5.2 | 0.00 | 0.00 | 0.00 | 49 | 1014.8 |
| 20260504043508 | 51 | 266 | 2.6 | 5.2 | 0.00 | 0.00 | 0.00 | 49 | 1014.8 |
| 20260504043033 | 51 | 238 | 1.7 | 6.1 | 0.00 | 0.00 | 0.00 | 48 | 1014.7 |
| 20260504042509 | 51 | 269 | 2.6 | 6.1 | 0.00 | 0.00 | 0.00 | 48 | 1014.7 |
| 20260504042004 | 51 | 290 | 3.5 | 6.1 | 0.00 | 0.00 | 0.00 | 47 | 1014.7 |
| 20260504041512 | 51 | 269 | 2.6 | 5.2 | 0.00 | 0.00 | 0.00 | 48 | 1014.7 |
| 20260504041003 | 52 | 263 | 2.6 | 4.3 | 0.00 | 0.00 | 0.00 | 48 | 1014.7 |
| 20260504040507 | 52 | 254 | 2.6 | 4.3 | 0.00 | 0.00 | 0.00 | 49 | 1014.8 |
| 20260504040018 | 52 | 266 | 1.7 | 4.3 | 0.00 | 0.00 | 0.00 | 49 | 1014.7 |
| 20260504035507 | 52 | 253 | 1.7 | 3.5 | 0.00 | 0.00 | 0.00 | 49 | 1014.8 |
| 20260504035007 | 52 | 269 | 1.7 | 6.1 | 0.00 | 0.00 | 0.00 | 47 | 1014.7 |
| 20260504034522 | 52 | 245 | 2.6 | 6.1 | 0.00 | 0.00 | 0.00 | 46 | 1014.6 |
| 20260504034005 | 52 | 273 | 1.7 | 5.2 | 0.00 | 0.00 | 0.00 | 46 | 1014.6 |
| 20260504033507 | 53 | 269 | 3.5 | 6.1 | 0.00 | 0.00 | 0.00 | 46 | 1014.5 |
| 20260504033003 | 53 | 257 | 2.6 | 6.1 | 0.00 | 0.00 | 0.00 | 45 | 1014.5 |
| 20260504032503 | 53 | 266 | 2.6 | 5.2 | 0.00 | 0.00 | 0.00 | 45 | 1014.4 |
| 20260504032003 | 53 | 295 | 2.6 | 5.2 | 0.00 | 0.00 | 0.00 | 45 | 1014.4 |
| 20260504031511 | 53 | 259 | 1.7 | 5.2 | 0.00 | 0.00 | 0.00 | 45 | 1014.4 |
| 20260504031002 | 53 | 262 | 1.7 | 6.1 | 0.00 | 0.00 | 0.00 | 45 | 1014.4 |
| 20260504030503 | 53 | 276 | 2.6 | 6.1 | 0.00 | 0.00 | 0.00 | 45 | 1014.3 |
| 20260504030016 | 53 | 227 | 2.6 | 5.2 | 0.00 | 0.00 | 0.00 | 46 | 1014.3 |
| 20260504025504 | 53 | 271 | 2.6 | 4.3 | 0.00 | 0.00 | 0.00 | 47 | 1014.3 |
| 20260504025009 | 53 | 256 | 2.6 | 4.3 | 0.00 | 0.00 | 0.00 | 46 | 1014.3 |
| 20260504024518 | 53 | 272 | 1.7 | 3.5 | 0.00 | 0.00 | 0.00 | 46 | 1014.3 |
| 20260504024005 | 53 | 264 | 0.9 | 3.5 | 0.00 | 0.00 | 0.00 | 46 | 1014.3 |
| 20260504023505 | 53 | 279 | 1.7 | 3.5 | 0.00 | 0.00 | 0.00 | 45 | 1014.4 |
| 20260504023021 | 54 | 272 | 0.9 | 2.6 | 0.00 | 0.00 | 0.00 | 46 | 1014.4 |
| 20260504022508 | 54 | 270 | 0.9 | 2.6 | 0.00 | 0.00 | 0.00 | 46 | 1014.3 |
| 20260504022011 | 54 | 271 | 0.9 | 2.6 | 0.00 | 0.00 | 0.00 | 45 | 1014.3 |
| 20260504021509 | 54 | 260 | 0.9 | 3.5 | 0.00 | 0.00 | 0.00 | 45 | 1014.3 |
| 20260504021003 | 54 | 257 | 1.7 | 3.5 | 0.00 | 0.00 | 0.00 | 44 | 1014.3 |
| 20260504020504 | 54 | 285 | 0.9 | 2.6 | 0.00 | 0.00 | 0.00 | 45 | 1014.4 |
| 20260504020012 | 55 | 265 | 0.9 | 3.5 | 0.00 | 0.00 | 0.00 | 44 | 1014.3 |
| 20260504015504 | 55 | 259 | 0.9 | 3.5 | 0.00 | 0.00 | 0.00 | 44 | 1014.4 |
| 20260504015005 | 55 | 264 | 0.9 | 4.3 | 0.00 | 0.00 | 0.00 | 43 | 1014.3 |
| 20260504014514 | 55 | 278 | 0.9 | 4.3 | 0.00 | 0.00 | 0.00 | 42 | 1014.3 |
| 20260504014005 | 55 | 269 | 1.7 | 4.3 | 0.00 | 0.00 | 0.00 | 41 | 1014.2 |
| 20260504013508 | 56 | 259 | 2.6 | 4.3 | 0.00 | 0.00 | 0.00 | 41 | 1014.2 |
| 20260504013025 | 56 | 257 | 2.6 | 4.3 | 0.00 | 0.00 | 0.00 | 41 | 1014.1 |
| 20260504012505 | 56 | 255 | 1.7 | 4.3 | 0.00 | 0.00 | 0.00 | 41 | 1014.2 |
| 20260504012006 | 56 | 261 | 1.7 | 4.3 | 0.00 | 0.00 | 0.00 | 40 | 1014.1 |
| 20260504011522 | 56 | 247 | 0.9 | 3.5 | 0.00 | 0.00 | 0.00 | 40 | 1014.0 |
| 20260504011007 | 56 | 264 | 2.6 | 4.3 | 0.00 | 0.00 | 0.00 | 39 | 1014.0 |
| 20260504010506 | 56 | 264 | 1.7 | 4.3 | 0.00 | 0.00 | 0.00 | 39 | 1014.0 |
| 20260504010008 | 56 | 276 | 0.9 | 3.5 | 0.00 | 0.00 | 0.00 | 39 | 1013.8 |
| 20260504005503 | 57 | 273 | 1.7 | 5.2 | 0.00 | 0.00 | 0.00 | 38 | 1013.8 |
| 20260504005006 | 57 | 282 | 1.7 | 5.2 | 0.00 | 0.00 | 0.00 | 38 | 1013.8 |
| 20260504004531 | 57 | 266 | 1.7 | 3.5 | 0.00 | 0.00 | 0.00 | 38 | 1013.8 |
| 20260504004006 | 57 | 259 | 2.6 | 4.3 | 0.00 | 0.00 | 0.00 | 37 | 1013.8 |
| 20260504003505 | 57 | 271 | 1.7 | 4.3 | 0.00 | 0.00 | 0.00 | 38 | 1013.7 |
| 20260504003018 | 57 | 259 | 1.7 | 3.5 | 0.00 | 0.00 | 0.00 | 37 | 1013.7 |
| 20260504002507 | 58 | 278 | 0.9 | 6.1 | 0.00 | 0.00 | 0.00 | 37 | 1013.6 |
| 20260504002006 | 58 | 252 | 0.9 | 6.1 | 0.00 | 0.00 | 0.00 | 36 | 1013.6 |
| 20260504001532 | 58 | 299 | 3.5 | 6.1 | 0.00 | 0.00 | 0.00 | 35 | 1013.6 |
| 20260504001009 | 58 | 278 | 2.6 | 6.1 | 0.00 | 0.00 | 0.00 | 36 | 1013.5 |
| 20260504000509 | 58 | 286 | 3.5 | 6.1 | 0.00 | 0.00 | 0.00 | 35 | 1013.5 |
| 20260504000028 | 59 | 292 | 2.6 | 6.1 | 0.00 | 0.00 | 0.00 | 36 | 1013.4 |
| 20260503235508 | 59 | 264 | 1.7 | 7.8 | 0.00 | 0.00 | 0.00 | 35 | 1013.3 |
| 20260503235008 | 59 | 338 | 2.6 | 10.4 | 0.00 | 0.00 | 0.00 | 35 | 1013.3 |
| 20260503234528 | 60 | 292 | 4.3 | 10.4 | 0.00 | 0.00 | 0.00 | 33 | 1013.2 |
| 20260503234006 | 60 | 288 | 4.3 | 9.6 | 0.00 | 0.00 | 0.00 | 33 | 1013.2 |
| 20260503233504 | 60 | 309 | 3.5 | 10.4 | 0.00 | 0.00 | 0.00 | 34 | 1013.2 |
| 20260503233014 | 60 | 304 | 2.6 | 10.4 | 0.00 | 0.00 | 0.00 | 33 | 1013.1 |
| 20260503232507 | 60 | 311 | 5.2 | 8.7 | 0.00 | 0.00 | 0.00 | 31 | 1013.1 |
| 20260503232008 | 60 | 256 | 2.6 | 9.6 | 0.00 | 0.00 | 0.00 | 32 | 1013.1 |
| 20260503231522 | 60 | 285 | 5.2 | 9.6 | 0.00 | 0.00 | 0.00 | 32 | 1013.1 |
| 20260503231009 | 60 | 289 | 3.5 | 9.6 | 0.00 | 0.00 | 0.00 | 32 | 1013.1 |
| 20260503230508 | 60 | 323 | 5.2 | 11.3 | 0.00 | 0.00 | 0.00 | 32 | 1013.1 |
| 20260503230026 | 60 | 251 | 6.1 | 11.3 | 0.00 | 0.00 | 0.00 | 32 | 1013.1 |
| 20260503225509 | 60 | 299 | 6.1 | 12.2 | 0.00 | 0.00 | 0.00 | 32 | 1013.1 |
| 20260503225006 | 60 | 285 | 7.0 | 13.9 | 0.00 | 0.00 | 0.00 | 31 | 1013.1 |
| 20260503224525 | 60 | 288 | 5.2 | 15.6 | 0.00 | 0.00 | 0.00 | 32 | 1013.1 |
| 20260503224008 | 60 | 271 | 7.0 | 15.6 | 0.00 | 0.00 | 0.00 | 32 | 1013.1 |
| 20260503223512 | 60 | 294 | 7.8 | 13.0 | 0.00 | 0.00 | 0.00 | 32 | 1013.1 |
| 20260503223028 | 60 | 283 | 6.1 | 15.6 | 0.00 | 0.00 | 0.00 | 31 | 1013.1 |
| 20260503222507 | 60 | 284 | 7.0 | 16.5 | 0.00 | 0.00 | 0.00 | 33 | 1013.0 |
| 20260503222007 | 60 | 295 | 9.6 | 16.5 | 0.00 | 0.00 | 0.00 | 32 | 1013.1 |
| 20260503221517 | 60 | 322 | 5.2 | 10.4 | 0.00 | 0.00 | 0.00 | 33 | 1013.0 |
| 20260503221002 | 60 | 273 | 5.2 | 14.8 | 0.00 | 0.00 | 0.00 | 32 | 1012.9 |
| 20260503220502 | 60 | 302 | 7.0 | 14.8 | 0.00 | 0.00 | 0.00 | 32 | 1013.0 |
| 20260503220008 | 60 | 254 | 7.0 | 12.2 | 0.00 | 0.00 | 0.00 | 32 | 1013.1 |
| 20260503215502 | 60 | 293 | 4.3 | 8.7 | 0.00 | 0.00 | 0.00 | 33 | 1013.1 |
| 20260503215003 | 60 | 289 | 4.3 | 12.2 | 0.00 | 0.00 | 0.00 | 32 | 1013.1 |
| 20260503214514 | 60 | 331 | 5.2 | 12.2 | 0.00 | 0.00 | 0.00 | 31 | 1013.2 |